User: anonymous   Login
Location: Unspecified
(0.0000°N, 0.0000°E)
Time: 23:15:40
(UTC+02:00)
Language:

Cosmos 1758 - Orbit

View from above orbital plane
View from above orbital plane
View from above satellite
View from above satellite

Ground track
Ground track

The orbit data is extracted from the following two-line orbital elements,

1 16791U 86046A   16204.92905385 +.00000235 +00000-0 +14839-4 0  9991
2 16791 082.4709 352.7801 0018216 126.2643 234.0270 15.04068975635900
Epoch (UTC): 22 July 2016 22:17:50
Eccentricity: 0.0018216
inclination: 82.4709°
perigee height: 542 km
apogee height: 567 km
right ascension of ascending node: 352.7801°
argument of perigee: 126.2643°
revolutions per day: 15.04068975
mean anomaly at epoch: 234.0270°
orbit number at epoch: 63590

The dashed part of the orbit path shows where the satellite is in the earth's shadow,  

DLR